Time,TemperatureF,DewpointF,PressureIn,WindDirection,WindDirectionDegrees,WindSpeedMPH,WindSpeedGustMPH,Humidity,HourlyPrecipIn,Conditions,Clouds,dailyrainin,SoftwareType,DateUTC
2013-11-24 00:07:00,32.2,17.4,30.08,SW,225,0.0,-999.0,54,-99.99,,,0.00,Acu-Link.com,2013-11-24 05:07:00,
2013-11-24 00:22:00,32.2,15.7,30.08,WSW,247,3.2,-999.0,50,-99.99,,,0.00,Acu-Link.com,2013-11-24 05:22:00,
2013-11-24 00:38:00,31.5,15.5,30.06,ESE,112,5.8,-999.0,51,-99.99,,,0.00,Acu-Link.com,2013-11-24 05:38:00,
2013-11-24 00:53:00,31.5,15.0,30.06,SSW,202,4.2,-999.0,50,-99.99,,,0.00,Acu-Link.com,2013-11-24 05:53:00,
2013-11-24 01:08:00,31.3,14.4,30.08,SSW,202,6.8,-999.0,49,-99.99,,,0.00,Acu-Link.com,2013-11-24 06:08:00,
2013-11-24 01:23:00,30.9,14.9,30.08,South,180,5.3,-999.0,51,-99.99,,,0.00,Acu-Link.com,2013-11-24 06:23:00,
2013-11-24 01:38:00,30.2,16.0,30.09,North,0,1.1,-999.0,55,-99.99,,,0.00,Acu-Link.com,2013-11-24 06:38:00,
2013-11-24 01:54:00,30.2,15.6,30.10,SW,225,6.3,-999.0,54,-99.99,,,0.00,Acu-Link.com,2013-11-24 06:54:00,
2013-11-24 02:09:00,29.8,15.6,30.12,NNW,337,3.7,-999.0,55,-99.99,,,0.00,Acu-Link.com,2013-11-24 07:09:00,
2013-11-24 02:24:00,29.5,15.8,30.12,NNW,337,6.3,-999.0,56,-99.99,,,0.00,Acu-Link.com,2013-11-24 07:24:00,
2013-11-24 02:39:00,28.9,13.5,30.13,West,270,1.1,-999.0,52,-99.99,,,0.00,Acu-Link.com,2013-11-24 07:39:00,
2013-11-24 02:54:00,28.0,13.5,30.13,NW,315,0.0,-999.0,54,-99.99,,,0.00,Acu-Link.com,2013-11-24 07:54:00,
2013-11-24 03:09:00,27.9,14.3,30.13,West,270,0.0,-999.0,56,-99.99,,,0.00,Acu-Link.com,2013-11-24 08:09:00,
2013-11-24 03:24:00,27.3,12.9,30.13,NNE,22,4.2,-999.0,54,-99.99,,,0.00,Acu-Link.com,2013-11-24 08:24:00,
2013-11-24 03:40:00,27.5,10.4,30.14,NW,315,2.7,-999.0,48,-99.99,,,0.00,Acu-Link.com,2013-11-24 08:40:00,
2013-11-24 03:55:00,26.8,10.2,30.14,SSW,202,0.0,-999.0,49,-99.99,,,0.00,Acu-Link.com,2013-11-24 08:55:00,
2013-11-24 04:10:00,26.2,10.1,30.15,West,270,1.7,-999.0,50,-99.99,,,0.00,Acu-Link.com,2013-11-24 09:10:00,
2013-11-24 04:25:00,26.6,8.2,30.16,WNW,292,4.7,-999.0,45,-99.99,,,0.00,Acu-Link.com,2013-11-24 09:25:00,
2013-11-24 04:40:00,25.9,8.9,30.17,WSW,247,3.2,-999.0,48,-99.99,,,0.00,Acu-Link.com,2013-11-24 09:40:00,
2013-11-24 04:55:00,25.7,9.7,30.17,ENE,67,0.0,-999.0,50,-99.99,,,0.00,Acu-Link.com,2013-11-24 09:55:00,
2013-11-24 05:10:00,25.7,11.0,30.17,ENE,67,4.7,-999.0,53,-99.99,,,0.00,Acu-Link.com,2013-11-24 10:10:00,
2013-11-24 05:26:00,25.9,10.7,30.18,NNW,337,3.2,-999.0,52,-99.99,,,0.00,Acu-Link.com,2013-11-24 10:26:00,
2013-11-24 05:41:00,25.7,10.1,30.19,North,0,2.2,-999.0,51,-99.99,,,0.00,Acu-Link.com,2013-11-24 10:41:00,
2013-11-24 05:56:00,25.3,10.2,30.19,East,90,4.2,-999.0,52,-99.99,,,0.00,Acu-Link.com,2013-11-24 10:56:00,
2013-11-24 06:11:00,25.2,10.1,30.20,SE,135,0.0,-999.0,52,-99.99,,,0.00,Acu-Link.com,2013-11-24 11:11:00,
2013-11-24 06:26:00,25.5,9.9,30.21,NNW,337,1.7,-999.0,51,-99.99,,,0.00,Acu-Link.com,2013-11-24 11:26:00,
2013-11-24 06:42:00,25.3,9.3,30.22,SSE,157,1.1,-999.0,50,-99.99,,,0.00,Acu-Link.com,2013-11-24 11:42:00,
2013-11-24 06:57:00,25.2,8.8,30.23,SSE,157,3.2,-999.0,49,-99.99,,,0.00,Acu-Link.com,2013-11-24 11:57:00,
2013-11-24 07:12:00,25.0,9.5,30.23,NNW,337,2.7,-999.0,51,-99.99,,,0.00,Acu-Link.com,2013-11-24 12:12:00,
2013-11-24 07:27:00,26.8,9.3,30.24,NNW,337,2.7,-999.0,47,-99.99,,,0.00,Acu-Link.com,2013-11-24 12:27:00,
2013-11-24 07:42:00,27.9,9.8,30.24,NW,315,6.3,-999.0,46,-99.99,,,0.00,Acu-Link.com,2013-11-24 12:42:00,
2013-11-24 07:58:00,27.5,8.5,30.26,NNW,337,6.8,-999.0,44,-99.99,,,0.00,Acu-Link.com,2013-11-24 12:58:00,
2013-11-24 08:13:00,28.2,9.1,30.25,NNE,22,4.7,-999.0,44,-99.99,,,0.00,Acu-Link.com,2013-11-24 13:13:00,
2013-11-24 08:28:00,28.2,9.6,30.26,SW,225,2.7,-999.0,45,-99.99,,,0.00,Acu-Link.com,2013-11-24 13:28:00,
2013-11-24 08:43:00,28.9,8.2,30.26,NE,45,7.8,-999.0,41,-99.99,,,0.00,Acu-Link.com,2013-11-24 13:43:00,
2013-11-24 08:58:00,29.5,7.6,30.26,North,0,5.3,-999.0,39,-99.99,,,0.00,Acu-Link.com,2013-11-24 13:58:00,
2013-11-24 09:14:00,30.2,8.3,30.27,NNW,337,4.7,-999.0,39,-99.99,,,0.00,Acu-Link.com,2013-11-24 14:14:00,
2013-11-24 09:29:00,28.9,7.1,30.27,WNW,292,7.8,-999.0,39,-99.99,,,0.00,Acu-Link.com,2013-11-24 14:29:00,
2013-11-24 09:44:00,30.2,8.3,30.29,NE,45,3.7,-999.0,39,-99.99,,,0.00,Acu-Link.com,2013-11-24 14:44:00,
2013-11-24 09:59:00,30.6,6.2,30.28,WSW,247,3.7,-999.0,35,-99.99,,,0.00,Acu-Link.com,2013-11-24 14:59:00,
2013-11-24 10:14:00,31.5,8.9,30.28,North,0,7.8,-999.0,38,-99.99,,,0.00,Acu-Link.com,2013-11-24 15:14:00,
2013-11-24 10:30:00,30.7,7.5,30.29,North,0,2.7,-999.0,37,-99.99,,,0.00,Acu-Link.com,2013-11-24 15:30:00,
2013-11-24 10:45:00,31.1,6.7,30.28,ESE,112,7.3,-999.0,35,-99.99,,,0.00,Acu-Link.com,2013-11-24 15:45:00,
2013-11-24 11:00:00,30.9,7.7,30.27,NNW,337,10.9,-999.0,37,-99.99,,,0.00,Acu-Link.com,2013-11-24 16:00:00,
2013-11-24 11:15:00,31.5,8.9,30.28,West,270,4.2,-999.0,38,-99.99,,,0.00,Acu-Link.com,2013-11-24 16:15:00,
2013-11-24 11:30:00,31.8,8.5,30.27,NW,315,6.3,-999.0,37,-99.99,,,0.00,Acu-Link.com,2013-11-24 16:30:00,
2013-11-24 11:45:00,32.5,7.9,30.27,NNE,22,5.3,-999.0,35,-99.99,,,0.00,Acu-Link.com,2013-11-24 16:45:00,
2013-11-24 12:00:00,33.1,7.8,30.27,ESE,112,4.7,-999.0,34,-99.99,,,0.00,Acu-Link.com,2013-11-24 17:00:00,
2013-11-24 12:16:00,32.9,7.0,30.28,ESE,112,3.7,-999.0,33,-99.99,,,0.00,Acu-Link.com,2013-11-24 17:16:00,
2013-11-24 12:31:00,33.3,8.6,30.27,NE,45,3.7,-999.0,35,-99.99,,,0.00,Acu-Link.com,2013-11-24 17:31:00,
2013-11-24 12:46:00,32.9,7.6,30.28,West,270,4.7,-999.0,34,-99.99,,,0.00,Acu-Link.com,2013-11-24 17:46:00,
2013-11-24 13:01:00,32.7,7.5,30.27,East,90,3.2,-999.0,34,-99.99,,,0.00,Acu-Link.com,2013-11-24 18:01:00,
2013-11-24 13:17:00,32.4,6.5,30.27,NW,315,5.3,-999.0,33,-99.99,,,0.00,Acu-Link.com,2013-11-24 18:17:00,
2013-11-24 13:32:00,33.1,7.2,30.27,SW,225,3.2,-999.0,33,-99.99,,,0.00,Acu-Link.com,2013-11-24 18:32:00,
2013-11-24 13:47:00,32.7,6.8,30.27,SSW,202,6.8,-999.0,33,-99.99,,,0.00,Acu-Link.com,2013-11-24 18:47:00,
2013-11-24 14:02:00,33.1,6.5,30.28,West,270,4.7,-999.0,32,-99.99,,,0.00,Acu-Link.com,2013-11-24 19:02:00,
2013-11-24 14:17:00,33.3,6.7,30.29,South,180,2.2,-999.0,32,-99.99,,,0.00,Acu-Link.com,2013-11-24 19:17:00,
2013-11-24 14:32:00,32.4,5.2,30.29,WNW,292,3.7,-999.0,31,-99.99,,,0.00,Acu-Link.com,2013-11-24 19:32:00,
2013-11-24 14:47:00,32.9,6.3,30.30,NE,45,1.1,-999.0,32,-99.99,,,0.00,Acu-Link.com,2013-11-24 19:47:00,
2013-11-24 15:02:00,32.2,5.7,30.30,East,90,3.7,-999.0,32,-99.99,,,0.00,Acu-Link.com,2013-11-24 20:02:00,
2013-11-24 15:17:00,32.0,5.5,30.32,WNW,292,2.7,-999.0,32,-99.99,,,0.00,Acu-Link.com,2013-11-24 20:17:00,
2013-11-24 15:32:00,32.0,6.8,30.32,West,270,3.7,-999.0,34,-99.99,,,0.00,Acu-Link.com,2013-11-24 20:32:00,
2013-11-24 15:47:00,31.5,7.0,30.33,NNE,22,1.1,-999.0,35,-99.99,,,0.00,Acu-Link.com,2013-11-24 20:47:00,
2013-11-24 16:02:00,31.1,6.0,30.33,NNW,337,7.3,-999.0,34,-99.99,,,0.00,Acu-Link.com,2013-11-24 21:02:00,
2013-11-24 16:18:00,29.7,6.7,30.33,WNW,292,1.1,-999.0,37,-99.99,,,0.00,Acu-Link.com,2013-11-24 21:18:00,
2013-11-24 16:33:00,28.8,7.0,30.35,NW,315,0.0,-999.0,39,-99.99,,,0.00,Acu-Link.com,2013-11-24 21:33:00,
2013-11-24 16:48:00,27.5,6.9,30.35,SE,135,0.0,-999.0,41,-99.99,,,0.00,Acu-Link.com,2013-11-24 21:48:00,
2013-11-24 17:03:00,27.0,7.5,30.36,NNE,22,5.3,-999.0,43,-99.99,,,0.00,Acu-Link.com,2013-11-24 22:03:00,
2013-11-24 17:18:00,26.1,6.7,30.37,South,180,0.0,-999.0,43,-99.99,,,0.00,Acu-Link.com,2013-11-24 22:18:00,
2013-11-24 17:33:00,25.7,6.3,30.38,South,180,0.0,-999.0,43,-99.99,,,0.00,Acu-Link.com,2013-11-24 22:33:00,
2013-11-24 17:48:00,24.4,6.6,30.39,SE,135,0.0,-999.0,46,-99.99,,,0.00,Acu-Link.com,2013-11-24 22:48:00,
2013-11-24 18:04:00,23.5,7.6,30.40,NNW,337,0.0,-999.0,50,-99.99,,,0.00,Acu-Link.com,2013-11-24 23:04:00,
2013-11-24 18:19:00,22.3,7.4,30.40,SSE,157,0.0,-999.0,52,-99.99,,,0.00,Acu-Link.com,2013-11-24 23:19:00,
2013-11-24 18:34:00,21.2,7.6,30.41,East,90,0.0,-999.0,55,-99.99,,,0.00,Acu-Link.com,2013-11-24 23:34:00,
2013-11-24 18:49:00,19.9,7.9,30.42,ESE,112,0.0,-999.0,59,-99.99,,,0.00,Acu-Link.com,2013-11-24 23:49:00,
2013-11-24 19:04:00,19.2,7.6,30.43,ESE,112,0.0,-999.0,60,-99.99,,,0.00,Acu-Link.com,2013-11-25 00:04:00,
2013-11-24 19:19:00,18.1,7.3,30.44,West,270,0.0,-999.0,62,-99.99,,,0.00,Acu-Link.com,2013-11-25 00:19:00,
2013-11-24 19:35:00,20.5,5.3,30.45,WSW,247,2.7,-999.0,51,-99.99,,,0.00,Acu-Link.com,2013-11-25 00:35:00,
2013-11-24 19:50:00,21.2,7.6,30.45,SSE,157,0.0,-999.0,55,-99.99,,,0.00,Acu-Link.com,2013-11-25 00:50:00,
2013-11-24 20:05:00,20.7,7.1,30.45,WSW,247,1.7,-999.0,55,-99.99,,,0.00,Acu-Link.com,2013-11-25 01:05:00,
2013-11-24 20:20:00,21.4,7.0,30.44,West,270,0.0,-999.0,53,-99.99,,,0.00,Acu-Link.com,2013-11-25 01:20:00,
2013-11-24 20:35:00,21.9,7.8,30.44,SE,135,0.0,-999.0,54,-99.99,,,0.00,Acu-Link.com,2013-11-25 01:35:00,
2013-11-24 20:51:00,20.8,6.8,30.45,NNW,337,0.0,-999.0,54,-99.99,,,0.00,Acu-Link.com,2013-11-25 01:51:00,
2013-11-24 21:06:00,21.4,6.1,30.46,South,180,0.0,-999.0,51,-99.99,,,0.00,Acu-Link.com,2013-11-25 02:06:00,
2013-11-24 21:21:00,21.0,6.6,30.46,East,90,0.0,-999.0,53,-99.99,,,0.00,Acu-Link.com,2013-11-25 02:21:00,
2013-11-24 21:36:00,22.1,7.2,30.46,NNW,337,0.0,-999.0,52,-99.99,,,0.00,Acu-Link.com,2013-11-25 02:36:00,
2013-11-24 21:51:00,21.9,7.0,30.46,SSE,157,0.0,-999.0,52,-99.99,,,0.00,Acu-Link.com,2013-11-25 02:51:00,
2013-11-24 22:06:00,21.4,7.8,30.45,West,270,2.7,-999.0,55,-99.99,,,0.00,Acu-Link.com,2013-11-25 03:06:00,
2013-11-24 22:22:00,21.7,8.5,30.45,SW,225,1.1,-999.0,56,-99.99,,,0.00,Acu-Link.com,2013-11-25 03:22:00,
2013-11-24 22:37:00,21.6,9.1,30.47,SW,225,0.0,-999.0,58,-99.99,,,0.00,Acu-Link.com,2013-11-25 03:37:00,
2013-11-24 22:52:00,21.0,9.3,30.47,NW,315,0.0,-999.0,60,-99.99,,,0.00,Acu-Link.com,2013-11-25 03:52:00,
2013-11-24 23:07:00,22.1,10.0,30.47,NNW,337,0.0,-999.0,59,-99.99,,,0.00,Acu-Link.com,2013-11-25 04:07:00,
2013-11-24 23:22:00,21.7,10.4,30.48,SSW,202,1.1,-999.0,61,-99.99,,,0.00,Acu-Link.com,2013-11-25 04:22:00,
2013-11-24 23:38:00,21.4,10.4,30.48,North,0,0.0,-999.0,62,-99.99,,,0.00,Acu-Link.com,2013-11-25 04:38:00,
2013-11-24 23:53:00,20.8,10.2,30.48,SE,135,0.0,-999.0,63,-99.99,,,0.00,Acu-Link.com,2013-11-25 04:53:00,